• In India
  • List of Countries
  • For 7 days
  • Water Temperature
  • Satellite Maps
  • Weather Map
  • Weather Widgets
  • user-avatar
    Login

    Hourly Weather Istebna

    Today, 23 September, Sunday

    Time Temperature Precipitation Wind Pressure Humidity
    00:00 +10°C° 0.1 mm 2 mps 713 mmHg 72%
    01:00 +10°C° 0 mm 3 mps 713 mmHg 71%
    02:00 +9°C° 0.1 mm 3 mps 713 mmHg 74%
    03:00 +9°C° 0.1 mm 2 mps 713 mmHg 76%
    04:00 +9°C° 0.1 mm 2 mps 712 mmHg 78%
    05:00 +9°C° 0 mm 2 mps 712 mmHg 77%
    06:00 +9°C° 0 mm 2 mps 712 mmHg 77%
    07:00 +9°C° 0 mm 3 mps 712 mmHg 73%
    08:00 +11°C° 0 mm 3 mps 712 mmHg 67%
    09:00 +12°C° 0 mm 4 mps 712 mmHg 62%
    10:00 +13°C° 0 mm 4 mps 712 mmHg 56%
    11:00 +13°C° 0 mm 4 mps 712 mmHg 60%
    12:00 +13°C° 0 mm 5 mps 711 mmHg 63%
    13:00 +13°C° 0 mm 5 mps 711 mmHg 66%
    14:00 +12°C° 0.1 mm 5 mps 710 mmHg 70%
    15:00 +12°C° 0.1 mm 5 mps 709 mmHg 73%
    16:00 +10°C° 0.1 mm 5 mps 708 mmHg 77%
    17:00 +10°C° 0 mm 5 mps 707 mmHg 76%
    18:00 +10°C° 0 mm 5 mps 706 mmHg 76%
    19:00 +10°C° 0 mm 5 mps 705 mmHg 76%
    20:00 +11°C° 0.2 mm 6 mps 704 mmHg 76%
    21:00 +11°C° 0.2 mm 7 mps 703 mmHg 77%
    22:00 +11°C° 0.2 mm 7 mps 702 mmHg 78%
    23:00 +12°C° 2.6 mm 7 mps 703 mmHg 82%

    Tomorrow, 24 September, Monday

    Time Temperature Precipitation Wind Pressure Humidity
    00:00 +12°C° 2.6 mm 7 mps 703 mmHg 87%
    01:00 +12°C° 2.6 mm 7 mps 703 mmHg 91%
    02:00 +10°C° 0.7 mm 7 mps 704 mmHg 90%
    03:00 +9°C° 0.7 mm 7 mps 706 mmHg 89%
    04:00 +6°C° 0.7 mm 7 mps 707 mmHg 89%
    05:00 +5°C° 0.2 mm 6 mps 708 mmHg 88%
    06:00 +5°C° 0.2 mm 6 mps 709 mmHg 88%
    07:00 +5°C° 0.2 mm 5 mps 710 mmHg 88%
    08:00 +6°C° 0.2 mm 5 mps 711 mmHg 85%
    09:00 +5°C° 0.2 mm 6 mps 712 mmHg 83%
    10:00 +5°C° 0.2 mm 6 mps 713 mmHg 80%
    11:00 +5°C° 0.2 mm 6 mps 714 mmHg 75%
    12:00 +7°C° 0.2 mm 6 mps 714 mmHg 71%
    13:00 +8°C° 0.2 mm 7 mps 715 mmHg 67%
    14:00 +7°C° 0.3 mm 6 mps 715 mmHg 67%
    15:00 +7°C° 0.3 mm 6 mps 715 mmHg 67%
    16:00 +7°C° 0.3 mm 6 mps 715 mmHg 67%
    17:00 +6°C° 0.1 mm 5 mps 715 mmHg 70%
    18:00 +5°C° 0.1 mm 4 mps 715 mmHg 74%
    19:00 +4°C° 0.1 mm 3 mps 716 mmHg 78%
    20:00 +4°C° 0.1 mm 3 mps 716 mmHg 79%
    21:00 +3°C° 0.1 mm 3 mps 716 mmHg 79%
    22:00 +3°C° 0.1 mm 4 mps 717 mmHg 80%
    23:00 +3°C° 0.1 mm 4 mps 717 mmHg 81%

    Day after tomorrow, 25 September, Tuesday

    Time Temperature Precipitation Wind Pressure Humidity
    00:00 +1°C° 0.1 mm 4 mps 718 mmHg 82%
    01:00 +1°C° 0.1 mm 4 mps 718 mmHg 84%
    02:00 +2°C° 0.2 mm 3 mps 718 mmHg 85%
    03:00 +2°C° 0.2 mm 3 mps 719 mmHg 86%
    04:00 +3°C° 0.2 mm 2 mps 719 mmHg 87%
    05:00 +3°C° 0.1 mm 2 mps 720 mmHg 86%
    06:00 +3°C° 0.1 mm 2 mps 720 mmHg 86%
    07:00 +3°C° 0.1 mm 2 mps 721 mmHg 85%
    08:00 +3°C° 0 mm 3 mps 721 mmHg 81%
    09:00 +4°C° 0 mm 3 mps 722 mmHg 78%
    10:00 +5°C° 0 mm 3 mps 722 mmHg 74%
    11:00 +7°C° 0.1 mm 3 mps 722 mmHg 71%
    12:00 +7°C° 0.1 mm 3 mps 723 mmHg 68%
    13:00 +8°C° 0.1 mm 3 mps 723 mmHg 65%
    14:00 +8°C° 0.1 mm 3 mps 723 mmHg 65%
    15:00 +8°C° 0.1 mm 3 mps 723 mmHg 65%
    16:00 +8°C° 0.1 mm 3 mps 723 mmHg 65%
    17:00 +7°C° 0 mm 2 mps 723 mmHg 71%
    18:00 +5°C° 0 mm 2 mps 723 mmHg 77%
    19:00 +5°C° 0 mm 1 mps 724 mmHg 83%
    20:00 +4°C° 0 mm 1 mps 724 mmHg 85%
    21:00 +4°C° 0 mm 1 mps 724 mmHg 86%
    22:00 +4°C° 0 mm 1 mps 725 mmHg 87%
    23:00 +3°C° 0 mm 1 mps 725 mmHg 87%

    26 September, Wednesday

    Time Temperature Precipitation Wind Pressure Humidity
    00:00 +3°C° 0 mm 1 mps 725 mmHg 88%
    01:00 +3°C° 0 mm 1 mps 725 mmHg 88%
    02:00 +3°C° 0 mm 1 mps 725 mmHg 88%
    03:00 +2°C° 0 mm 1 mps 725 mmHg 88%
    04:00 +2°C° 0 mm 1 mps 725 mmHg 88%
    05:00 +3°C° 0 mm 1 mps 725 mmHg 85%
    06:00 +4°C° 0 mm 1 mps 725 mmHg 83%
    07:00 +5°C° 0 mm 1 mps 725 mmHg 80%
    08:00 +7°C° 0 mm 1 mps 725 mmHg 72%
    09:00 +8°C° 0 mm 2 mps 725 mmHg 63%
    10:00 +10°C° 0 mm 2 mps 725 mmHg 54%
    11:00 +11°C° 0 mm 3 mps 725 mmHg 52%
    12:00 +11°C° 0 mm 3 mps 724 mmHg 49%
    13:00 +12°C° 0 mm 4 mps 724 mmHg 47%
    14:00 +12°C° 0 mm 3 mps 723 mmHg 49%
    15:00 +12°C° 0 mm 3 mps 723 mmHg 52%
    16:00 +11°C° 0 mm 3 mps 722 mmHg 54%
    17:00 +10°C° 0 mm 3 mps 722 mmHg 58%
    18:00 +8°C° 0 mm 3 mps 722 mmHg 63%
    19:00 +7°C° 0 mm 2 mps 721 mmHg 67%
    20:00 +7°C° 0 mm 2 mps 721 mmHg 66%
    21:00 +7°C° 0 mm 2 mps 721 mmHg 65%
    22:00 +7°C° 0 mm 3 mps 721 mmHg 64%
    23:00 +6°C° 0 mm 2 mps 721 mmHg 65%

    27 September, Thursday

    Time Temperature Precipitation Wind Pressure Humidity
    00:00 +6°C° 0 mm 2 mps 721 mmHg 66%
    01:00 +5°C° 0 mm 2 mps 720 mmHg 67%
    02:00 +5°C° 0 mm 2 mps 720 mmHg 68%
    03:00 +5°C° 0 mm 2 mps 720 mmHg 68%
    04:00 +5°C° 0 mm 2 mps 719 mmHg 68%
    05:00 +6°C° 0 mm 2 mps 719 mmHg 66%
    06:00 +6°C° 0 mm 2 mps 719 mmHg 64%
    07:00 +7°C° 0 mm 2 mps 719 mmHg 62%
    08:00 +10°C° 0 mm 2 mps 719 mmHg 57%
    09:00 +13°C° 0 mm 2 mps 720 mmHg 51%
    10:00 +16°C° 0 mm 2 mps 720 mmHg 45%
    11:00 +17°C° 0 mm 2 mps 720 mmHg 44%
    12:00 +18°C° 0 mm 2 mps 720 mmHg 43%
    13:00 +19°C° 0 mm 2 mps 719 mmHg 42%
    14:00 +19°C° 0 mm 2 mps 719 mmHg 46%
    15:00 +18°C° 0 mm 2 mps 718 mmHg 50%
    16:00 +18°C° 0 mm 2 mps 718 mmHg 55%
    17:00 +16°C° 0 mm 2 mps 717 mmHg 59%
    18:00 +14°C° 0 mm 2 mps 717 mmHg 64%
    19:00 +12°C° 0 mm 2 mps 717 mmHg 69%
    20:00 +10°C° 0 mm 2 mps 716 mmHg 69%
    21:00 +10°C° 0 mm 2 mps 716 mmHg 70%
    22:00 +10°C° 0 mm 2 mps 716 mmHg 70%
    23:00 +9°C° 0 mm 2 mps 716 mmHg 70%

    28 September, Friday

    Time Temperature Precipitation Wind Pressure Humidity
    00:00 +9°C° 0 mm 2 mps 715 mmHg 71%
    01:00 +9°C° 0 mm 2 mps 715 mmHg 71%
    02:00 +9°C° 0 mm 2 mps 715 mmHg 71%
    03:00 +8°C° 0 mm 2 mps 714 mmHg 71%
    04:00 +8°C° 0 mm 2 mps 714 mmHg 71%
    05:00 +9°C° 0 mm 2 mps 714 mmHg 69%
    06:00 +9°C° 0 mm 2 mps 714 mmHg 67%
    07:00 +10°C° 0 mm 2 mps 714 mmHg 65%
    08:00 +13°C° 0 mm 2 mps 714 mmHg 58%
    09:00 +15°C° 0 mm 2 mps 715 mmHg 51%
    10:00 +17°C° 0 mm 2 mps 715 mmHg 45%
    11:00 +18°C° 0 mm 2 mps 715 mmHg 45%
    12:00 +19°C° 0 mm 2 mps 715 mmHg 45%
    13:00 +19°C° 0 mm 2 mps 715 mmHg 45%
    14:00 +18°C° 0 mm 2 mps 715 mmHg 51%
    15:00 +18°C° 0 mm 3 mps 714 mmHg 57%
    16:00 +17°C° 0 mm 3 mps 714 mmHg 63%
    17:00 +14°C° 0 mm 3 mps 714 mmHg 72%
    18:00 +13°C° 0 mm 2 mps 714 mmHg 80%
    19:00 +10°C° 0 mm 2 mps 714 mmHg 89%
    20:00 +10°C° 0 mm 2 mps 715 mmHg 89%
    21:00 +10°C° 0 mm 2 mps 715 mmHg 88%
    22:00 +10°C° 0 mm 2 mps 715 mmHg 88%
    23:00 +10°C° 0 mm 2 mps 715 mmHg 88%
    Show more